Temp
15 15 16 17 17 17 17 17 17 18 18 18 18 18 18 18 18 18 18 18 17 17 17 17 17 17 17 17 17 17 17 17 17 17 17 17 17 18 17 18 18 18 17 17 17 17 17 17 17 17 17 17 18 17 17 17 17 17 18 19 19 19 19 21 20 19 18 18 18 18 17 16 16 16 16 15 14 13 14 14 13 13 14 14 13
15 14 15 17 17 18 18 17 17 17 17 18 18 18 18 18 18 18 18 17 17 17 17 17 17 17 17 17 17 17 17 17 17 17 17 17 17 17 18 18 18 18 18 18 17 17 17 18 18 17 17 17 18 18 18 18 18 18 19 19 19 19 19 21 20 19 18 17 18 18 17 17 17 17 16 16 15 14 14 14 14 14 14 14 14
15 14 15 17 17 17 18 17 17 17 17 17 18 18 17 17 17 17 17 17 17 17 17 17 17 17 17 17 17 17 17 17 17 17 17 17 18 18 18 18 18 18 18 18 18 17 17 18 18 17 17 17 18 18 18 18 19 19 19 19 20 19 19 20 20 20 19 18 18 18 17 17 17 17 17 16 15 15 15 15 15 15 15 15 14
15 14 15 16 16 16 16 16 16 17 17 17 17 17 17 17 17 17 17 17 17 17 17 17 17 17 17 17 17 17 17 17 17 17 17 17 18 18 18 18 18 18 18 18 18 18 17 18 17 17 17 17 18 18 18 18 19 19 19 19 19 19 19 19 20 20 19 18 18 18 18 17 17 18 17 17 16 15 16 16 16 16 15 15 14
16 16 15 14 15 16 16 16 17 17 17 17 17 16 16 17 17 17 17 17 17 17 17 17 17 17 17 18 17 17 17 17 17 17 17 17 17 18 18 18 18 18 18 18 18 18 17 18 18 17 17 18 18 18 18 18 19 19 19 19 19 19 19 19 19 20 20 19 19 19 18 18 17 18 18 17 17 16 16 16 16 16 15 15 14
17 16 14 14 14 16 16 16 17 17 16 16 16 16 16 16 16 17 17 17 17 17 17 17 17 17 18 18 18 18 17 17 17 17 17 17 17 17 17 18 18 18 18 18 18 18 17 18 18 17 17 18 18 18 18 18 19 19 19 19 19 19 18 18 19 19 19 19 19 19 19 18 18 18 18 18 17 17 17 17 16 16 16 15 14
16 15 15 15 15 16 16 16 16 16 16 16 16 16 16 16 16 16 16 16 17 17 17 17 17 17 17 17 18 17 17 17 17 17 17 17 17 17 17 17 18 18 18 18 18 17 17 17 17 17 17 18 18 18 18 18 18 19 19 19 19 19 18 18 18 19 19 19 19 19 18 18 18 18 18 18 17 17 17 17 17 16 16 15 14
16 16 16 16 16 16 16 15 16 16 16 16 16 16 16 16 16 16 16 16 16 16 16 16 17 17 17 17 17 17 17 17 17 17 17 17 17 17 17 17 18 17 17 18 17 17 18 17 17 17 17 17 18 18 18 18 18 18 18 18 18 18 18 18 18 18 19 19 19 19 19 19 18 18 18 18 18 18 18 17 17 17 16 15 14
17 17 16 16 16 15 14 14 15 15 16 16 16 16 15 15 15 15 16 16 16 16 16 16 17 17 17 17 17 16 16 16 16 16 17 17 17 17 17 17 17 18 18 18 17 17 18 17 17 17 17 17 17 17 17 18 18 18 18 18 18 18 18 18 19 19 19 19 19 19 19 19 18 18 18 18 18 18 18 17 17 17 16 15 14
16 16 16 15 15 14 14 14 14 14 15 15 15 15 15 15 15 15 15 15 15 15 15 16 16 17 17 16 16 16 16 16 16 16 16 16 17 17 17 17 17 18 18 18 18 17 18 17 17 17 17 17 17 17 17 17 18 18 18 18 18 18 18 18 19 19 19 19 19 19 19 19 19 18 18 18 17 17 18 17 17 17 17 16 15
14 14 14 14 14 14 13 13 13 13 13 14 14 15 15 15 15 15 15 15 15 15 16 15 15 16 16 15 15 15 16 16 16 16 16 16 16 17 17 17 17 17 18 18 18 18 17 17 17 17 17 17 17 17 17 17 17 17 17 17 17 18 18 18 19 19 19 19 19 19 19 19 19 19 18 18 17 17 17 17 17 17 17 16 16
12 12 13 14 14 13 13 13 13 12 13 13 14 14 15 14 14 14 14 14 15 15 15 15 14 14 15 15 15 15 15 16 16 16 16 16 16 16 17 17 17 17 18 18 18 18 18 17 17 17 17 17 17 17 17 17 17 17 17 17 17 17 17 18 18 18 18 19 19 19 19 19 19 19 18 18 18 17 17 17 17 17 17 16 16
10 11 12 12 13 13 13 13 12 12 12 12 12 13 13 13 13 13 13 13 14 14 13 13 13 13 14 14 14 14 14 15 15 16 16 16 16 16 17 17 17 17 17 18 18 18 18 18 17 17 17 17 17 17 17 17 17 17 17 17 17 17 17 17 17 17 17 18 18 19 19 18 18 19 18 18 17 17 17 17 16 16 17 16 16
9 10 10 11 11 12 12 12 11 11 11 11 12 12 12 11 12 12 12 13 13 13 12 12 12 12 12 13 13 13 13 14 14 15 15 16 16 16 16 16 16 17 17 17 17 17 17 17 17 17 17 17 17 17 17 17 17 17 17 17 17 17 17 17 17 17 17 17 17 17 18 18 18 18 18 17 16 16 16 16 16 16 15 15 15
9 9 10 10 10 10 11 11 11 11 11 10 11 11 11 11 11 12 12 12 12 12 12 12 12 12 12 12 12 12 13 13 13 14 14 15 16 16 15 16 16 16 16 16 16 16 16 16 16 17 17 16 16 16 16 16 16 16 16 16 16 16 16 16 16 16 16 16 16 16 17 17 17 17 16 15 16 16 15 15 14 14 14 13 13
8 8 9 9 9 10 10 10 10 10 10 10 10 10 10 11 11 11 12 12 12 12 11 11 11 11 11 11 11 12 12 12 13 14 14 14 15 15 15 16 16 16 16 15 16 16 16 16 16 16 16 17 16 16 16 16 16 16 16 16 16 16 16 16 16 16 16 16 16 16 16 16 16 16 15 15 15 15 14 14 13 13 14 13 13
7 8 8 8 8 9 9 10 10 10 10 10 10 10 10 10 11 11 11 11 11 11 11 11 11 11 11 11 10 11 12 12 13 13 14 14 14 15 15 16 16 16 15 15 15 15 15 15 16 16 16 16 16 15 16 16 16 16 16 16 16 16 16 16 16 16 16 16 16 16 16 16 16 16 15 15 15 14 14 14 14 14 14 14 13
7 8 8 8 7 8 8 8 9 9 10 10 10 10 10 10 11 11 11 11 11 11 10 10 11 11 11 11 11 11 11 12 12 13 14 14 14 14 15 16 15 15 15 15 15 15 15 15 15 15 15 15 14 14 15 15 15 15 16 16 16 16 17 16 16 16 16 16 15 15 15 15 15 15 15 15 15 14 14 14 14 14 14 14 14
8 8 7 7 7 8 8 8 8 8 8 8 8 9 9 9 10 10 10 9 9 9 9 10 10 10 10 11 10 10 10 11 12 12 13 13 13 13 14 15 15 14 15 15 15 15 15 14 14 14 14 14 14 14 14 14 14 14 15 16 16 16 16 16 15 15 15 15 15 15 15 14 14 14 14 14 14 14 13 13 14 14 15 15 14
7 7 7 7 7 7 7 7 8 8 8 8 7 8 8 8 9 9 9 9 9 9 9 9 9 9 8 9 10 9 9 9 10 11 11 12 12 12 12 12 12 12 13 14 14 15 15 14 14 13 13 14 13 13 13 13 13 13 13 14 15 15 15 15 15 14 14 14 14 14 13 13 13 13 13 13 13 13 13 12 12 13 14 14 14
7 7 7 7 7 7 7 7 7 8 8 8 8 8 8 8 8 8 9 9 9 9 9 9 9 9 8 8 8 8 8 8 8 9 10 10 11 11 10 10 11 11 11 13 14 14 14 14 13 12 12 12 13 12 12 12 12 12 12 13 14 14 14 14 14 13 13 13 14 14 13 13 12 12 12 12 12 13 12 12 12 12 12 13 13
6 6 6 6 6 6 6 6 6 7 7 7 8 8 8 8 8 8 9 9 8 8 9 9 10 9 9 8 8 8 8 7 7 8 9 9 9 9 9 9 9 9 10 11 12 13 13 12 11 11 11 11 11 12 12 11 11 11 11 12 12 12 12 12 12 12 13 13 14 14 14 13 13 13 12 12 11 12 12 12 12 12 11 11 11
5 5 5 5 6 6 6 6 6 6 7 7 7 8 8 8 8 8 8 9 9 9 9 9 10 10 10 9 9 8 7 7 7 7 8 8 8 8 7 8 8 8 8 9 10 11 11 10 9 9 10 11 11 11 11 11 11 11 11 11 11 11 11 11 11 11 12 13 14 14 14 14 13 12 11 11 11 11 11 11 11 10 10 9 9
4 5 5 5 5 5 5 5 5 5 6 7 7 7 7 8 8 8 8 9 10 10 10 10 10 10 10 10 9 9 8 7 7 7 7 7 7 7 7 7 7 7 7 7 8 9 9 8 8 8 9 10 10 11 11 11 11 11 11 12 11 11 10 9 9 10 11 12 13 13 13 13 12 11 11 10 10 10 10 9 9 8 8 8 8
4 4 5 5 5 5 5 5 5 5 5 6 7 7 7 8 8 8 9 9 9 10 10 10 10 10 10 10 10 9 8 8 7 6 6 6 6 6 5 6 6 6 6 6 7 7 6 7 7 7 8 8 9 10 10 10 10 11 11 11 10 10 9 8 8 9 9 11 12 12 12 12 11 10 10 10 10 9 9 8 7 7 7 7 7
4 5 5 5 5 6 6 6 6 6 6 7 7 7 7 8 8 8 9 9 9 9 10 10 10 10 10 10 9 9 8 8 8 7 6 6 5 5 5 5 5 5 6 6 6 6 6 6 7 7 7 8 8 8 9 9 10 10 10 10 9 7 7 7 8 9 9 10 11 12 12 11 10 10 9 9 9 8 8 7 7 6 6 6 6
5 5 5 5 6 6 6 6 6 7 7 7 7 7 7 8 8 8 8 9 9 9 9 9 9 9 9 9 9 9 9 8 8 7 6 5 5 5 5 5 5 6 6 6 6 6 5 6 6 7 7 8 8 8 9 9 9 10 10 9 8 7 6 7 8 8 9 9 10 11 11 10 10 9 9 8 7 7 7 7 6 5 5 5 5
5 5 5 6 6 6 6 6 7 7 7 7 7 7 7 7 7 7 7 7 7 8 8 8 8 8 8 8 8 9 9 8 6 5 4 3 4 4 5 5 5 6 6 6 5 6 5 6 6 7 7 8 8 8 9 9 9 9 9 9 9 8 7 6 7 8 8 8 9 9 9 9 9 8 7 7 6 6 6 6 5 5 4 4 4
5 5 6 6 6 6 6 6 6 7 7 7 7 6 6 6 6 6 5 5 5 5 6 6 6 6 6 7 7 8 8 7 5 4 3 3 3 4 4 4 4 5 5 5 5 5 5 6 7 8 8 8 8 8 9 9 9 8 8 8 8 8 7 7 7 7 7 8 8 8 8 7 7 6 5 5 5 5 5 5 5 4 4 5 5
6 6 6 6 6 6 6 6 6 7 7 7 7 6 5 5 6 5 5 4 4 4 4 5 4 4 5 5 5 5 5 5 4 4 4 4 4 4 4 4 4 4 5 5 5 5 6 7 8 9 9 9 8 8 8 8 8 8 8 8 7 7 6 6 6 6 7 7 7 6 6 6 5 4 4 4 4 4 4 4 4 4 4 5 5
6 6 6 5 6 6 7 7 7 7 7 7 7 7 7 6 5 5 5 4 4 4 4 4 4 4 4 4 4 4 4 4 4 4 4 4 5 5 5 5 5 5 5 5 5 6 7 8 8 8 8 8 7 7 8 8 8 8 8 8 8 7 6 6 6 6 6 6 6 5 5 5 4 4 4 4 4 3 3 4 4 4 5 6 6
7 6 6 6 6 6 7 7 7 7 7 7 7 8 8 7 6 5 4 4 4 4 4 4 4 3 3 3 4 4 4 4 4 4 4 5 5 5 5 5 5 5 5 5 6 7 8 8 7 6 6 7 7 8 8 8 8 9 9 9 9 8 7 7 6 5 5 5 5 4 4 4 4 3 3 3 3 3 4 4 4 4 5 5 5
6 6 6 6 6 7 7 7 7 7 7 7 7 8 8 8 8 7 6 5 4 4 4 4 3 3 3 3 3 4 4 4 5 5 5 5 5 5 6 5 5 5 6 6 7 7 7 7 6 6 6 7 7 7 7 8 8 8 9 9 9 9 8 7 6 5 4 4 4 4 3 3 3 3 3 3 3 3 3 3 3 3 3 3 3
6 5 5 6 7 7 7 7 7 7 7 7 7 7 7 7 7 7 7 7 6 5 5 4 4 3 3 4 4 4 4 4 4 5 5 5 5 5 6 6 6 6 6 7 7 7 6 6 6 6 6 6 6 6 6 7 7 8 8 8 8 8 8 6 5 4 4 4 3 3 3 3 3 3 3 3 3 2 2 2 3 3 3 4 4
6 5 4 5 6 7 7 7 7 7 7 7 7 7 7 7 6 7 7 8 8 7 7 6 4 4 4 4 4 4 4 4 4 4 4 4 4 5 6 7 7 7 7 7 7 7 6 6 6 6 6 6 6 6 5 6 6 7 7 7 7 7 6 6 4 4 3 3 3 3 3 3 3 3 2 2 2 2 2 2 2 3 3 3 3
6 6 6 6 6 6 6 6 7 7 7 7 7 6 6 6 7 7 7 7 7 8 8 7 6 5 4 4 4 4 4 4 4 4 4 4 5 6 7 7 7 7 7 7 7 6 6 6 6 6 6 5 5 5 5 5 5 6 6 6 6 5 4 4 3 2 2 2 2 2 2 2 2 2 2 2 2 2 2 2 1 2 2 2 3
6 6 6 6 6 6 6 6 5 5 5 6 7 7 7 6 6 7 7 6 6 7 7 7 6 6 5 5 4 4 4 4 4 4 4 4 5 5 6 6 7 6 6 6 6 6 6 6 5 5 5 5 4 4 4 4 4 5 5 4 4 3 2 2 1 1 1 1 1 1 1 1 2 2 2 2 1 1 1 1 1 1 1 2 2
6 5 5 5 5 6 6 6 5 5 6 6 7 7 6 6 6 6 6 6 5 6 7 6 6 6 6 5 4 4 4 5 5 4 4 4 4 5 5 5 5 5 5 5 4 4 5 5 5 4 4 4 3 3 3 3 3 3 3 3 2 1 1 1 1 1 1 1 0 1 1 1 1 1 1 1 1 1 1 1 1 2 1 1 2
6 5 4 4 4 5 6 6 6 6 6 6 6 6 6 6 6 6 6 6 5 5 6 6 5 5 4 3 3 3 4 5 5 4 4 3 3 4 4 4 3 3 3 3 3 3 4 4 4 4 3 3 3 3 2 2 2 2 2 2 1 1 1 1 1 1 1 1 0 0 0 0 0 0 1 1 1 1 1 1 1 1 1 1 2
7 5 4 4 4 5 5 5 6 6 6 6 6 6 6 6 6 6 6 6 6 5 5 6 5 4 2 2 2 3 4 4 4 4 3 3 3 3 3 2 2 2 2 2 2 2 3 3 3 3 2 2 2 2 1 1 1 1 1 1 1 1 1 1 1 1 1 1 0 0 0 0 0 0 1 1 1 0 1 1 1 1 2 2 2
7 6 4 4 4 5 5 6 6 6 5 5 6 6 6 5 6 6 5 5 5 5 5 5 4 2 1 1 2 2 3 5 4 4 3 3 2 2 1 1 1 1 1 1 1 1 1 2 2 2 2 2 2 1 1 1 1 1 1 1 1 1 1 1 1 1 1 1 1 1 1 1 1 1 1 1 1 1 1 2 2 2 2 2 2
6 6 6 5 5 5 6 6 5 5 5 5 5 5 5 5 5 5 5 5 5 5 5 5 4 3 2 2 2 3 4 5 4 3 3 2 2 1 1 1 1 1 1 0 -0 -0 0 0 0 0 0 0 1 1 0 0 1 1 0 0 1 1 1 1 1 1 1 1 1 1 1 1 1 1 1 2 2 2 2 2 2 2 2 2 2
6 6 6 5 5 5 6 6 5 5 5 5 4 4 4 4 5 4 4 4 5 5 5 4 4 4 3 3 3 4 5 4 4 3 2 2 2 1 1 1 1 1 0 -0 -1 -1 -1 -1 -1 -0 -0 -0 0 0 0 0 0 0 1 1 1 1 1 1 1 1 1 1 1 1 1 1 1 1 2 2 3 3 3 2 2 2 2 2 2
6 6 6 5 5 5 5 5 5 4 4 4 4 4 4 4 4 4 4 4 5 5 5 4 4 4 4 3 4 4 4 3 3 3 2 2 1 1 1 0 -0 -0 -0 -1 -1 -1 -1 -1 -1 -1 -0 -0 -0 0 0 1 1 1 1 1 1 1 1 1 1 1 1 0 0 1 1 1 1 2 2 2 2 2 2 3 2 2 2 2 2
6 6 6 6 6 6 5 5 4 4 4 4 4 4 4 4 4 4 4 4 4 4 4 4 3 3 3 3 3 3 3 3 2 2 2 2 1 1 1 -0 -1 -1 -1 -1 -1 -0 -0 -1 -0 -0 -0 0 0 0 1 1 1 1 1 1 1 1 1 1 0 1 0 0 0 1 1 2 2 2 2 3 3 3 3 2 2 2 2 2 2
6 6 6 6 6 6 6 5 5 4 5 5 4 4 4 4 4 4 4 4 4 4 4 4 3 3 3 3 3 3 3 2 2 2 1 1 1 1 0 -0 -1 -1 -1 -0 -0 -0 -0 0 0 0 0 0 0 0 0 1 1 1 1 1 1 1 0 0 0 0 0 0 0 1 1 2 2 3 3 3 3 3 2 2 2 2 2 2 2
6 6 6 6 5 5 6 5 5 4 5 5 4 4 4 4 4 4 3 3 3 4 4 3 3 3 3 3 3 3 2 2 2 2 1 1 0 0 0 0 -0 -1 -0 0 0 0 0 0 0 0 0 0 0 0 1 1 1 1 1 1 1 1 0 0 0 0 -0 0 1 2 2 2 3 3 3 3 3 3 2 2 2 2 2 2 2
6 6 6 6 6 6 6 5 5 5 5 5 4 4 4 4 4 4 4 4 4 4 4 3 3 3 3 3 3 3 3 2 3 3 2 1 0 0 0 0 0 0 0 0 0 0 0 0 0 0 0 0 0 1 1 1 1 1 1 1 0 0 0 0 1 0 0 0 1 2 2 2 3 2 2 2 2 2 3 3 3 2 2 3 2
6 6 6 6 6 6 6 5 5 5 5 5 4 4 4 4 4 4 4 4 4 4 4 3 3 3 3 3 3 3 3 3 3 3 2 2 1 0 0 0 0 0 0 0 0 0 0 0 1 1 1 0 0 1 1 1 0 0 0 0 0 0 0 0 0 0 0 0 1 1 2 2 2 2 2 2 2 2 2 3 3 2 2 2 3
6 6 6 6 5 5 5 5 5 5 5 5 5 5 4 4 4 4 4 4 4 4 4 3 3 3 3 3 3 3 3 3 3 3 3 2 1 0 -0 -0 0 0 0 0 0 0 0 0 0 0 0 0 0 0 0 0 0 0 -0 0 0 0 0 0 0 0 0 0 1 1 1 1 1 2 2 2 2 2 2 2 2 3 3 3 3
6 6 6 6 5 5 5 5 5 5 5 5 5 5 5 5 5 4 4 4 4 4 3 3 3 4 4 3 3 3 3 3 3 3 2 2 1 0 -0 -0 -0 -0 -0 -0 -0 -0 -0 -0 0 0 0 0 0 0 -0 -0 -0 -0 -0 -0 -0 0 0 -0 -0 -0 -0 0 1 1 1 1 1 1 2 2 2 2 2 2 2 3 3 3 3
Height
790 791 792 795 798 800 803 805 808 811 814 817 819 821 823 823 825 826 827 829 830 831 832 832 833 834 834 836 836 837 838 839 840 840 840 840 840 841 841 841 841 842 842 843 843 844 844 845 846 848 849 849 850 852 853 855 856 857 859 860 860 862 862 861 863 868 872 874 875 877 878 880 881 882 884 885 885 886 887 888 887 887 888 888 887
789 791 791 794 797 799 802 805 808 812 814 817 819 821 822 823 824 826 827 828 830 830 831 832 832 833 834 835 836 837 838 839 840 840 840 841 841 841 841 841 841 842 842 843 843 843 844 845 846 847 848 849 849 851 852 854 855 856 858 859 860 861 862 861 863 867 871 873 875 876 878 879 880 881 882 883 884 885 886 886 886 886 887 887 887
790 791 792 794 796 799 802 805 809 812 814 817 819 820 822 823 824 825 827 828 829 830 831 832 832 833 833 834 835 836 837 838 840 840 841 841 841 841 842 842 842 842 843 843 843 843 843 844 846 846 847 848 849 850 852 853 854 856 857 858 859 861 862 862 863 866 870 872 874 875 876 878 878 879 880 881 882 883 884 884 885 885 885 886 886
789 791 791 793 796 799 803 806 809 812 814 816 818 820 821 823 824 825 826 828 829 830 831 831 832 833 833 834 835 836 837 838 839 840 841 841 841 841 842 842 842 843 843 843 843 843 843 844 845 846 847 848 849 850 851 853 855 856 857 859 860 861 863 864 864 865 867 870 872 873 874 876 877 877 878 879 880 881 882 882 883 883 884 885 885
788 790 793 796 800 803 804 806 808 811 813 815 817 819 821 822 824 825 827 828 829 830 831 831 832 833 834 834 835 836 836 838 839 840 840 841 841 841 842 842 843 843 843 843 843 843 843 844 845 846 847 848 849 850 851 853 854 856 857 858 859 861 862 864 864 865 866 868 870 871 872 874 875 875 876 877 878 879 880 880 881 882 882 883 883
789 792 797 801 804 805 804 805 808 810 812 815 817 819 821 822 824 825 827 828 829 830 831 831 832 833 833 834 835 835 836 837 838 839 840 840 841 841 842 842 843 843 843 844 844 844 844 844 845 846 847 848 849 850 851 853 854 855 856 857 858 860 862 863 864 865 866 866 868 869 871 871 873 873 874 875 876 877 878 878 879 879 880 881 881
790 793 797 802 805 806 805 806 808 810 812 814 817 819 821 822 824 826 827 829 830 831 831 832 832 833 833 834 835 836 836 837 838 838 839 840 840 841 841 842 842 843 844 844 844 844 844 845 845 846 847 848 849 850 851 852 853 854 855 857 857 859 861 862 863 864 865 866 866 867 868 870 870 871 872 873 874 875 875 876 876 877 878 878 879
792 795 797 801 805 806 806 808 809 811 812 815 817 819 821 823 824 826 828 829 830 831 832 832 833 833 834 834 835 836 837 837 838 838 838 839 840 841 841 842 842 843 843 844 844 845 845 846 846 847 848 849 849 850 851 852 853 854 855 856 857 858 859 860 861 862 863 864 864 864 866 867 868 869 870 871 872 872 872 873 873 874 875 876 876
793 796 798 801 804 805 807 809 811 812 813 815 817 819 821 823 825 827 828 829 830 831 832 833 833 834 834 835 835 836 837 837 837 838 838 839 839 840 841 842 842 843 843 844 844 845 845 846 846 847 848 848 849 850 851 852 853 854 854 855 856 857 858 859 859 860 861 862 862 862 863 864 865 867 867 868 868 869 869 870 871 871 872 873 874
794 796 799 802 804 805 807 809 811 813 814 815 817 819 821 823 825 826 828 829 830 831 832 833 833 834 834 835 836 836 837 837 838 838 838 838 839 840 840 841 842 842 843 843 844 845 845 846 846 847 847 848 849 850 850 851 852 853 854 855 855 856 857 857 858 858 859 859 860 860 861 862 863 864 865 865 866 867 867 868 868 869 870 870 871
796 798 800 802 804 806 808 810 812 814 815 816 817 819 821 823 824 825 827 829 830 831 831 832 833 833 834 835 835 835 836 837 838 838 838 839 839 839 840 841 841 842 843 843 844 844 845 846 846 847 847 848 849 849 850 851 852 853 853 854 854 855 855 856 856 857 857 857 857 858 858 859 860 862 863 863 864 865 865 866 866 866 867 867 867
798 800 802 805 806 808 810 812 814 815 816 817 818 819 821 822 824 825 827 829 830 831 831 832 833 833 833 833 834 835 836 837 837 838 838 838 839 839 840 841 841 842 842 843 843 844 845 846 846 847 848 848 849 849 850 851 851 852 852 853 853 854 854 855 855 855 856 856 856 856 856 857 858 859 860 861 862 863 863 864 864 864 863 863 864
800 801 803 806 808 810 812 814 816 817 817 819 820 821 822 823 824 825 827 829 830 831 832 832 833 833 833 833 833 835 836 836 836 837 837 838 838 839 840 840 841 842 842 842 843 843 844 845 846 847 847 848 848 849 849 850 850 850 851 851 852 852 853 853 853 854 855 855 855 855 855 856 856 857 857 858 859 860 860 861 861 861 861 861 861
802 802 803 806 809 811 814 815 816 818 819 820 821 823 824 825 825 826 828 829 830 831 832 833 834 834 834 833 834 835 836 836 836 837 837 837 838 838 839 840 841 842 842 843 843 843 844 845 845 846 847 847 848 848 848 849 849 849 850 850 850 851 851 851 852 853 853 854 854 854 854 855 855 855 856 856 857 858 858 858 859 859 860 860 860
805 805 806 809 811 813 814 816 818 820 821 822 823 824 826 826 826 827 828 829 830 831 832 833 834 835 835 835 835 835 836 837 837 837 837 837 837 838 838 839 840 841 842 842 843 843 844 844 845 846 846 846 846 847 847 848 848 848 848 849 849 849 849 850 850 851 851 852 852 853 853 854 854 854 854 855 855 856 856 856 857 858 859 859 858
810 810 812 814 815 815 817 818 820 821 822 824 824 826 827 827 828 829 830 831 832 832 833 833 834 835 835 836 836 836 836 837 837 837 837 837 837 837 838 838 839 840 840 841 841 842 842 843 844 844 845 845 844 844 845 846 846 847 847 847 847 847 847 847 848 848 849 850 850 851 851 851 851 852 852 853 853 854 854 854 855 856 856 856 855
815 816 817 818 819 819 820 820 822 823 823 824 825 827 828 828 829 831 832 832 833 833 834 834 834 834 835 836 836 837 837 838 838 838 837 837 837 838 838 838 838 839 839 839 839 840 840 841 841 842 843 842 842 842 843 843 844 844 844 844 845 845 845 845 845 845 846 846 847 847 848 848 848 849 849 850 850 852 852 851 851 852 852 851 851
819 820 821 822 822 823 823 824 824 825 825 826 827 828 829 830 831 832 833 834 834 835 835 835 835 835 835 836 837 837 837 838 838 837 837 837 837 838 839 839 839 839 839 838 839 839 839 838 839 840 840 839 839 840 840 840 841 842 842 842 842 842 842 842 841 842 842 843 843 843 844 844 845 845 845 846 847 848 849 848 848 849 848 847 847
822 823 824 825 825 825 826 827 827 828 828 829 830 830 831 832 833 833 834 835 836 836 836 836 837 836 836 836 837 837 837 837 837 837 837 837 837 838 839 839 839 839 839 838 839 839 838 838 838 838 838 837 837 838 838 838 839 840 840 840 839 839 839 839 838 838 838 839 839 839 840 840 840 841 841 842 843 844 844 845 845 845 844 843 843
826 827 827 827 828 828 828 829 829 830 831 832 833 833 833 833 834 834 835 836 837 837 837 837 837 837 837 837 837 837 837 837 836 836 836 836 836 837 838 838 838 839 839 838 838 838 838 838 836 836 836 836 836 836 836 836 837 837 838 838 837 837 837 836 835 835 835 836 836 836 836 836 837 837 837 838 838 839 840 841 842 842 841 841 841
829 829 829 829 829 830 830 830 831 832 833 834 834 835 835 835 836 836 837 837 837 837 837 838 838 838 837 837 837 837 837 837 836 836 836 836 836 836 837 837 837 837 838 838 837 837 837 837 836 834 834 835 834 834 834 834 834 834 834 835 835 834 834 833 832 832 833 834 833 833 834 834 833 833 834 834 834 835 836 837 838 838 839 839 838
832 832 832 831 831 831 832 832 832 833 834 834 835 836 836 837 837 837 838 838 838 838 838 838 838 838 838 838 838 838 837 837 836 836 835 835 835 836 836 835 835 836 836 836 836 836 836 836 834 833 833 833 833 832 832 832 831 831 831 831 831 831 831 830 830 830 831 831 831 830 830 830 830 830 830 830 830 831 832 833 834 835 835 836 836
835 834 834 834 834 835 835 835 835 835 835 836 836 837 837 838 838 838 838 838 838 838 838 838 838 838 838 838 838 838 838 837 836 836 835 835 835 835 835 834 834 835 835 835 835 835 835 834 832 831 831 831 830 830 829 829 828 828 828 828 828 829 828 828 828 828 827 827 827 826 826 827 826 826 826 827 827 827 828 829 830 831 832 834 834
837 837 837 837 837 837 837 837 837 837 837 838 838 838 839 839 839 839 839 839 839 838 838 838 838 838 838 838 838 839 838 838 837 836 835 835 835 834 834 834 833 833 833 834 834 834 833 832 830 829 829 828 828 827 827 826 826 825 825 825 825 826 825 825 825 825 824 823 823 822 823 823 822 822 823 823 824 824 826 827 828 829 831 832 832
839 838 838 838 838 838 838 839 839 838 838 839 839 840 840 840 840 840 839 839 839 839 839 838 838 838 838 838 838 838 838 838 837 836 836 835 835 834 834 833 833 833 833 833 833 832 831 830 829 828 827 827 826 825 825 824 823 822 822 822 822 822 822 822 822 822 821 821 820 820 820 820 819 819 819 820 821 822 824 825 827 828 829 830 831
840 840 840 840 840 840 840 840 840 840 840 840 840 840 840 840 840 840 840 840 840 839 839 839 838 838 838 838 838 838 838 838 838 837 836 836 835 834 833 833 832 832 831 831 831 830 829 828 828 827 826 825 825 824 823 823 822 821 820 819 819 819 819 819 819 819 818 818 818 817 817 817 816 816 816 817 819 821 822 823 825 826 828 829 830
843 843 843 842 842 842 842 842 841 841 841 841 841 841 841 840 841 840 840 840 840 840 840 839 839 839 839 839 839 838 837 838 838 837 837 837 836 835 834 833 832 831 831 831 830 830 828 827 826 825 824 823 823 822 821 820 820 820 819 818 818 818 818 817 817 817 816 816 815 814 814 813 813 813 815 816 817 819 820 821 823 825 826 828 830
845 845 845 845 844 844 844 843 843 843 843 842 842 842 841 841 841 841 841 841 841 841 841 841 841 841 840 839 839 838 838 837 837 837 837 836 835 834 834 833 833 832 831 830 829 828 827 825 824 823 822 822 821 820 820 819 818 818 818 817 817 816 816 815 814 814 814 813 813 812 811 811 811 812 814 815 816 817 818 820 822 823 826 828 829
847 847 847 846 846 846 845 845 844 844 844 843 843 843 842 841 842 842 842 841 842 842 842 842 842 842 841 841 840 839 838 838 837 837 836 835 834 833 833 832 832 831 830 829 827 826 825 824 824 823 822 821 820 819 819 818 817 817 816 815 815 815 814 813 812 811 811 811 810 809 809 809 810 811 813 814 815 817 818 820 821 823 825 827 828
849 849 848 848 847 847 846 846 846 845 845 844 844 844 844 844 844 844 843 842 842 843 843 842 842 842 842 841 841 840 839 838 837 836 835 834 833 832 831 830 830 829 828 827 825 824 824 823 822 821 821 820 820 819 818 817 816 815 814 813 813 812 812 811 809 809 808 808 808 808 807 808 808 810 812 813 815 817 819 820 821 822 824 826 827
849 849 849 849 848 847 847 847 846 846 845 845 845 845 845 845 845 844 843 842 842 843 842 842 842 841 841 841 840 839 838 837 836 834 833 833 832 831 830 829 828 827 826 825 824 824 823 822 822 821 821 820 819 818 817 816 814 813 812 811 811 810 810 809 807 807 806 806 806 806 806 807 807 808 810 812 814 816 819 821 822 823 824 826 827
849 849 849 849 849 848 847 847 847 846 846 846 845 845 844 844 845 845 844 843 843 843 843 843 842 842 841 840 840 839 838 836 835 833 832 831 830 830 829 828 827 827 826 825 824 823 823 822 822 822 821 820 818 817 816 815 813 812 810 809 808 808 808 807 806 806 805 804 805 805 805 806 807 808 809 810 813 815 818 820 822 823 824 826 827
850 850 849 849 849 849 848 848 847 847 846 846 846 845 845 844 844 844 844 844 844 844 843 843 842 842 841 840 839 838 837 836 834 833 831 830 829 828 828 827 827 826 826 825 824 824 823 823 822 822 821 819 818 816 815 814 812 811 809 808 807 806 806 805 805 805 804 804 804 804 804 804 805 807 809 811 813 816 817 819 821 823 825 827 828
852 852 851 850 850 849 849 849 848 847 847 847 846 846 846 845 845 844 844 844 843 843 843 843 842 842 841 840 839 838 837 836 834 833 831 830 829 828 827 826 826 826 826 825 825 824 824 823 823 821 820 819 818 817 816 814 812 811 809 808 806 805 805 805 805 804 804 804 803 803 803 803 804 806 809 811 813 816 818 819 822 824 826 827 828
852 853 852 851 850 849 849 849 848 848 848 847 847 847 846 846 846 845 844 844 843 843 843 843 843 842 842 840 840 839 838 836 835 833 832 831 829 828 827 826 826 826 825 825 825 824 824 823 822 821 820 819 818 817 815 814 813 811 809 808 807 806 805 805 805 804 804 804 804 803 802 803 804 806 808 811 813 815 817 820 822 824 825 827 828
852 852 852 851 850 850 850 849 849 848 848 847 847 847 847 846 846 846 845 845 845 844 844 844 844 843 842 841 840 839 838 837 835 834 833 832 830 829 828 827 827 827 826 825 825 824 823 822 822 821 819 818 817 816 815 814 813 811 810 809 808 807 806 806 805 805 805 804 804 804 804 804 806 807 808 811 813 815 816 819 822 824 825 827 827
852 851 851 850 850 850 850 850 850 849 849 848 848 847 848 848 847 847 847 847 847 846 845 845 844 843 843 842 841 839 838 837 836 834 834 832 831 830 830 829 828 827 827 826 826 825 824 823 822 821 820 819 817 816 816 815 813 812 811 810 809 808 807 806 806 806 806 806 805 806 806 807 807 808 809 812 815 817 818 820 822 824 825 826 827
852 851 851 850 850 850 850 851 851 850 849 849 848 849 849 849 848 848 848 848 848 847 846 845 844 843 842 842 840 838 837 837 836 835 834 833 832 831 831 830 829 829 828 828 827 826 825 824 823 822 820 819 818 817 816 815 814 813 812 811 810 809 808 808 808 808 808 808 808 809 810 810 811 811 813 815 817 819 820 821 823 825 826 827 828
851 851 851 850 850 850 850 850 851 850 850 850 849 850 850 850 849 849 848 848 848 847 845 844 844 843 842 841 839 838 837 837 836 836 835 834 833 833 832 832 831 830 830 829 828 827 826 825 824 823 821 820 819 817 816 815 814 814 813 813 812 811 810 811 810 810 810 811 812 813 814 815 816 817 818 818 820 820 821 823 824 825 827 828 829
851 850 851 851 851 851 851 851 851 850 850 850 850 850 850 850 849 849 848 848 847 846 845 845 844 844 843 841 839 838 838 838 837 836 836 835 835 834 834 833 833 832 832 831 830 829 828 826 825 824 822 821 820 819 818 816 815 815 815 814 813 813 813 813 813 813 813 814 815 817 818 819 820 821 822 822 822 823 824 825 826 827 828 829 830
851 851 851 851 851 850 850 850 850 850 851 851 851 850 850 850 850 849 848 848 847 846 846 845 845 845 844 842 840 839 839 839 838 838 838 837 837 836 836 835 835 834 833 832 831 830 829 828 827 825 824 823 822 821 820 818 818 817 817 817 816 816 815 815 815 815 815 816 818 820 822 823 823 824 824 825 825 826 827 827 828 829 829 830 831
851 851 851 851 851 850 850 850 850 851 852 852 851 851 851 850 850 849 849 848 847 847 847 846 847 846 845 844 842 841 841 841 840 840 840 840 839 838 838 837 837 836 835 834 833 831 830 829 828 827 825 825 824 823 822 821 820 820 820 820 819 819 819 819 819 819 819 819 820 822 824 825 825 826 826 826 827 828 829 829 829 830 831 831 832
852 851 851 851 851 851 850 850 850 851 851 852 852 852 851 850 850 849 849 848 848 848 847 847 847 847 846 845 844 843 842 843 842 842 842 842 841 841 840 839 838 837 836 835 833 832 832 830 829 828 827 826 825 825 825 824 823 823 823 822 822 822 822 822 822 822 822 823 824 825 826 827 828 828 828 828 829 830 830 830 831 831 831 832 832
852 851 851 851 851 850 850 850 850 851 851 852 852 851 851 850 850 849 849 849 848 848 848 848 848 848 847 847 846 845 845 845 845 844 844 843 843 842 842 841 840 839 837 836 834 833 833 832 831 830 829 828 828 827 827 826 826 825 825 825 825 825 825 825 825 825 825 826 827 828 829 830 830 830 830 830 831 832 832 832 832 832 832 833 833
851 851 851 850 850 849 849 850 850 851 851 851 851 851 850 850 850 850 849 849 849 849 849 849 849 849 849 848 847 847 847 847 846 846 845 845 844 844 843 842 841 840 839 837 836 835 835 834 833 832 832 831 831 830 830 829 829 828 828 828 828 828 828 828 828 828 828 828 829 830 831 831 831 831 831 832 832 832 833 833 833 834 834 834 834
851 851 850 850 849 849 849 849 850 850 850 850 850 850 850 850 850 850 850 850 850 850 850 850 850 850 850 849 849 849 848 848 848 847 847 846 846 845 844 843 842 842 841 840 838 838 837 836 835 835 834 834 833 833 832 832 831 831 831 831 830 830 830 830 830 830 831 831 832 832 832 832 832 832 832 832 832 833 834 834 835 835 835 835 835
850 850 850 849 849 849 849 849 849 850 849 849 850 850 850 850 850 850 851 851 851 851 851 851 851 851 851 850 850 850 850 849 849 849 848 848 847 846 845 845 844 843 843 842 841 840 839 838 838 837 837 836 835 835 834 834 834 833 833 833 832 832 832 832 832 832 833 833 833 834 833 833 833 834 834 833 834 834 835 835 835 835 835 836 836
849 849 849 849 849 848 848 848 849 849 849 849 850 850 850 850 851 850 851 851 851 851 851 851 851 851 851 851 850 850 850 850 850 850 850 850 849 848 847 846 845 845 844 843 843 842 841 840 840 839 839 838 837 837 836 836 835 835 835 834 834 834 833 833 833 833 833 834 835 835 835 835 835 835 835 835 835 835 835 835 835 836 836 836 836
848 848 849 849 848 848 848 848 848 848 848 849 850 850 850 850 851 851 851 851 851 851 851 851 852 852 852 851 851 851 851 851 851 851 851 851 850 850 849 848 847 846 846 845 844 844 843 842 842 841 840 840 839 838 838 837 837 836 836 835 835 835 835 835 835 834 835 835 836 836 836 836 836 837 837 837 837 836 836 836 836 837 837 837 837
847 848 848 848 848 848 848 848 848 848 848 848 849 849 850 850 850 851 851 851 851 851 851 852 852 852 852 852 852 851 851 851 851 851 851 851 851 851 850 849 848 848 847 846 846 845 844 844 843 843 842 842 841 840 839 838 838 837 837 836 836 836 836 836 836 836 836 837 838 838 838 838 838 838 838 838 838 838 838 838 838 838 837 837 837
847 847 847 847 848 847 847 848 848 848 848 848 848 848 849 850 850 850 851 851 851 851 851 852 852 851 852 852 852 852 852 852 852 852 852 852 851 851 851 850 849 849 848 848 847 846 846 845 844 844 844 843 842 842 841 840 839 839 838 838 838 837 837 837 837 837 837 838 838 839 839 839 839 839 839 839 839 839 839 839 839 838 838 838 838
Wind_Speed
19 22 29 31 30 29 27 23 21 20 20 21 20 18 16 15 15 14 13 12 11 10 9 9 9 9 8 7 6 7 7 6 5 5 5 5 5 5 5 5 5 5 6 6 7 8 10 11 11 11 11 10 10 10 10 11 12 13 13 9 6 6 7 8 10 11 9 8 9 10 13 14 13 14 13 12 15 15 11 10 11 11 9 8 8
20 20 26 30 30 27 25 22 21 21 21 21 19 18 17 15 15 14 13 12 11 10 9 9 8 8 8 7 7 7 8 7 6 6 6 6 6 5 5 5 5 5 5 5 6 8 10 10 11 11 10 9 10 11 11 12 13 14 13 10 8 8 8 7 10 12 10 9 10 10 13 14 13 14 15 14 14 16 14 12 12 11 10 9 8
20 21 26 28 27 25 23 22 21 22 22 21 19 18 17 15 14 13 13 12 10 9 8 8 8 8 8 8 8 8 8 8 6 6 6 5 6 6 6 5 5 5 5 5 5 8 10 11 11 10 9 9 11 11 12 12 13 13 12 10 8 9 8 6 8 11 11 11 11 11 13 15 14 14 15 15 15 16 15 14 13 11 10 9 8
19 22 25 24 23 22 23 23 22 23 22 20 18 17 17 15 14 13 13 11 10 8 8 8 8 8 8 8 9 9 8 8 7 6 5 4 5 7 7 6 6 6 5 4 4 7 10 11 11 10 10 10 11 11 12 13 12 12 12 10 9 9 8 6 6 9 10 11 12 11 13 15 14 13 15 15 15 15 15 14 13 12 11 10 9
18 18 18 20 20 19 21 21 21 22 21 19 19 18 16 15 13 13 13 11 10 9 9 10 9 9 9 8 8 8 8 7 6 6 5 4 4 6 6 6 6 6 5 4 4 6 9 10 11 11 11 11 11 12 13 13 12 12 12 11 10 9 9 8 7 7 8 10 11 11 11 13 14 13 14 15 15 15 15 14 13 12 12 10 10
15 15 17 18 16 14 16 18 18 19 19 19 18 17 16 15 14 14 13 12 11 10 10 10 9 8 8 7 8 7 6 6 6 5 6 5 5 5 5 6 6 6 5 4 4 5 7 9 10 11 10 11 11 12 13 13 12 12 12 10 10 9 9 10 9 8 8 8 10 11 11 12 13 13 13 14 14 14 14 14 13 13 13 12 12
15 17 17 16 14 12 14 16 16 16 17 17 17 16 16 15 15 14 13 12 11 10 9 8 7 7 7 7 7 6 6 5 5 5 6 6 6 5 5 5 5 5 4 4 4 4 5 8 9 10 9 10 11 11 12 12 11 11 10 9 8 9 9 10 10 10 10 10 10 11 12 12 13 13 13 14 14 14 14 14 14 14 14 14 13
16 18 17 16 14 13 14 14 14 15 16 18 18 17 17 16 14 13 13 11 11 10 9 8 7 7 7 6 6 6 5 5 4 4 5 6 6 5 5 5 6 5 4 3 3 3 4 6 8 9 9 9 10 10 10 11 10 9 9 8 8 9 9 9 10 11 11 11 11 11 12 13 13 13 12 13 14 15 15 14 14 14 15 15 15
15 16 17 16 15 15 16 16 16 16 17 18 18 17 17 17 15 13 11 10 10 9 8 7 7 7 6 6 6 5 4 4 4 4 4 5 5 5 5 6 6 6 5 4 4 3 3 5 6 8 9 9 10 10 10 10 9 8 8 8 8 8 8 8 9 9 10 11 11 11 12 12 13 14 14 15 16 16 15 15 15 15 14 15 15
17 17 17 17 16 16 18 19 19 18 17 19 21 21 20 20 18 15 12 10 9 8 8 7 6 6 6 6 6 5 3 4 5 5 4 4 4 4 5 6 7 7 6 6 5 5 4 4 5 6 7 8 8 8 8 9 9 8 8 7 7 7 7 7 8 8 9 10 10 11 12 12 13 14 15 16 17 15 14 15 16 15 14 14 14
19 18 18 18 17 16 17 18 19 18 18 21 23 24 23 19 16 13 10 8 7 6 6 6 6 7 8 7 6 5 5 5 6 5 5 4 4 3 3 4 6 7 7 6 6 6 6 5 4 4 5 5 5 6 6 7 7 8 7 7 7 7 7 7 7 7 8 9 10 10 11 12 13 14 14 14 14 14 14 15 15 15 15 14 14
18 18 18 17 16 16 16 16 16 16 18 19 19 19 18 12 8 9 9 9 8 6 5 6 7 9 9 7 6 5 4 5 7 7 6 5 4 4 3 4 6 7 8 7 7 7 7 6 6 5 5 5 5 5 6 6 6 7 7 8 9 9 9 9 9 8 7 9 10 10 11 12 12 13 13 14 13 13 14 15 16 17 17 17 16
19 19 18 16 15 14 14 14 15 15 15 15 15 14 13 11 10 11 12 12 11 9 8 8 9 10 10 10 9 8 6 4 4 6 7 7 6 5 4 4 5 6 6 6 6 6 7 7 7 7 7 8 7 7 7 7 7 7 8 9 9 9 10 11 11 11 10 10 11 12 12 12 13 13 13 13 13 13 14 16 16 17 18 18 18
22 23 21 18 16 14 14 14 15 15 14 15 16 16 15 15 15 15 15 14 14 13 13 13 11 11 12 13 12 10 8 6 4 3 4 5 6 6 4 4 5 5 5 5 5 5 5 6 6 7 7 8 8 8 7 7 7 8 8 8 9 9 10 11 12 12 13 14 14 14 12 12 13 13 11 10 11 11 13 12 12 14 15 15 16
22 23 23 20 18 17 17 16 16 16 15 16 19 19 19 18 18 18 17 17 17 16 16 15 13 12 11 12 12 11 10 7 5 4 3 3 4 4 3 4 4 4 5 5 5 5 5 5 6 6 6 6 7 8 7 6 6 7 8 9 9 10 10 12 13 14 15 16 16 15 14 13 12 11 9 10 13 14 14 13 13 14 13 13 16
22 23 23 22 21 22 22 21 20 18 18 18 18 18 18 19 19 18 18 18 17 17 16 15 14 12 11 11 11 11 9 7 5 4 3 3 3 3 0 2 3 3 3 4 4 5 5 5 6 7 7 7 9 10 8 7 8 8 9 10 11 11 12 14 16 17 16 18 19 18 18 17 17 17 16 16 16 15 13 14 15 15 13 13 14
20 21 22 21 21 22 23 23 23 21 21 21 19 18 17 18 19 18 18 17 17 16 15 14 13 12 11 10 9 8 7 6 5 4 3 2 3 2 1 2 1 1 2 2 2 3 4 5 6 6 5 6 8 10 10 9 10 10 12 13 13 14 15 16 19 21 20 20 21 22 23 23 24 25 24 23 22 17 14 14 15 14 14 14 14
18 18 18 17 17 18 19 19 19 20 20 20 19 17 16 15 15 14 14 13 13 13 13 11 11 11 10 9 8 6 4 4 3 2 2 1 2 3 2 2 1 1 1 2 2 3 5 8 7 5 4 6 9 11 12 11 11 11 13 14 15 16 17 17 20 23 24 23 23 24 25 25 25 26 26 26 26 23 20 18 16 15 16 15 14
16 16 16 15 15 15 16 15 15 16 16 16 15 14 14 13 11 10 9 8 8 8 9 8 7 7 7 7 6 5 2 1 1 1 1 1 1 2 3 2 1 2 2 2 2 3 5 7 8 8 8 10 12 13 13 13 12 12 13 14 16 17 17 16 17 19 22 23 23 23 24 25 25 26 26 25 24 24 23 22 18 18 19 17 16
14 14 14 14 14 14 14 14 14 13 13 12 11 10 10 10 10 8 7 6 5 6 7 6 6 6 5 4 4 3 2 2 4 3 3 3 1 1 3 2 2 3 3 3 3 4 4 4 6 9 11 12 14 15 15 15 14 13 13 14 16 17 17 17 17 16 17 17 17 18 19 20 20 21 23 23 22 22 22 21 18 17 18 18 18
13 13 13 13 14 13 13 13 13 12 11 10 9 8 8 7 7 6 5 4 5 5 5 4 4 4 4 4 3 2 2 3 5 6 5 5 5 2 2 3 4 3 4 5 4 5 4 3 4 9 11 12 14 15 16 16 17 18 17 17 18 18 18 18 17 15 15 15 15 16 15 15 16 16 17 17 18 19 20 20 19 18 18 16 14
12 12 13 13 14 13 13 12 11 10 10 9 8 8 7 6 6 5 4 4 4 4 3 3 3 3 3 3 3 3 4 5 6 8 7 7 6 4 3 6 6 5 5 6 5 5 5 4 6 12 14 13 14 16 17 18 18 20 22 22 21 21 21 20 17 16 17 17 16 17 17 16 15 14 14 14 16 18 19 19 21 23 24 21 17
12 12 13 13 13 12 12 11 10 9 9 8 7 7 6 6 5 5 4 3 3 3 3 2 2 2 2 1 2 3 3 4 6 8 7 7 7 6 5 6 6 5 6 7 7 7 6 6 10 15 17 16 16 17 18 20 20 21 22 22 22 22 22 22 20 18 20 21 18 17 18 17 15 15 16 16 18 21 20 20 22 23 23 21 18
12 12 12 11 10 10 10 10 9 8 8 7 7 7 6 5 5 5 4 3 2 2 2 2 1 1 1 1 1 2 2 2 4 7 7 6 5 6 6 6 6 7 7 7 7 7 8 9 13 17 17 18 19 19 19 21 22 23 22 21 21 22 22 23 22 20 21 22 21 20 20 19 18 18 19 19 20 21 20 19 18 18 17 17 16
11 10 10 10 9 8 8 9 9 9 8 7 7 6 6 5 5 5 4 3 3 2 2 2 2 2 2 1 1 1 2 1 1 6 9 9 8 9 9 8 7 7 6 7 8 9 12 14 16 17 17 17 18 19 19 20 21 23 23 21 20 20 21 21 22 21 20 20 20 21 22 20 18 17 19 21 21 20 18 18 18 18 18 17 16
10 9 9 9 9 8 7 7 7 8 7 6 6 6 6 5 5 5 4 3 3 2 3 3 2 2 2 2 2 2 2 2 2 4 8 9 9 10 11 10 10 10 7 6 7 10 13 15 15 15 16 16 17 18 18 19 21 22 23 22 19 17 17 17 18 18 18 19 21 23 22 18 17 18 20 21 20 19 21 22 21 20 19 18 17
8 8 8 8 8 8 7 7 6 6 7 6 6 6 6 6 6 5 5 4 4 3 3 3 3 3 3 3 3 2 2 2 4 5 7 7 7 8 8 8 9 9 7 6 8 10 12 14 13 12 13 13 14 15 16 16 17 17 16 15 14 13 14 15 16 17 18 19 21 22 19 16 18 20 21 20 20 22 24 25 24 22 20 19 18
6 7 7 7 7 7 7 7 6 6 6 7 7 8 7 6 6 7 7 6 5 5 5 4 4 5 4 4 4 3 2 4 6 8 9 9 8 8 7 6 7 7 6 7 10 12 12 12 11 10 10 10 10 11 11 11 11 11 11 10 11 13 14 14 16 18 18 17 17 17 15 15 17 19 19 20 22 25 26 25 24 22 20 17 15
6 6 5 6 6 5 6 6 6 5 6 6 7 9 10 9 7 5 5 6 3 2 3 4 5 5 5 5 6 5 4 5 7 10 10 10 9 8 7 7 7 8 8 10 12 13 10 9 9 8 8 8 8 9 9 9 9 9 10 11 13 14 14 13 13 14 13 13 13 14 16 15 15 17 19 20 22 24 24 24 22 20 17 13 11
4 5 5 5 5 4 4 5 5 5 5 4 5 6 8 9 8 4 2 5 4 2 2 3 4 5 4 5 6 6 7 8 10 11 9 8 8 7 7 8 9 10 10 11 12 10 8 8 8 9 9 9 9 9 9 9 9 10 10 11 12 12 12 12 11 10 11 12 12 13 15 15 13 15 17 19 20 19 19 20 20 18 14 12 11
3 4 5 5 5 4 4 4 4 4 4 4 3 3 3 4 7 8 5 2 2 2 3 3 4 5 5 5 6 8 10 11 11 10 9 7 6 6 7 9 9 10 11 11 9 7 8 9 9 9 10 10 10 10 10 11 11 11 11 11 11 11 11 11 10 9 11 12 10 10 14 14 13 14 17 19 20 17 15 16 16 14 12 11 10
3 4 4 5 4 4 4 4 4 4 4 4 4 3 2 3 3 8 10 9 8 6 6 5 5 6 6 7 7 8 9 11 11 10 9 7 6 6 7 7 8 10 11 9 7 8 10 10 10 10 10 10 11 11 11 11 12 12 12 11 11 11 10 10 10 9 8 9 9 10 12 12 12 15 18 20 21 19 17 16 13 11 10 9 8
4 4 3 3 3 3 4 4 4 4 4 4 4 4 4 3 3 3 5 7 8 9 9 8 7 6 6 7 7 8 9 11 11 10 9 8 7 7 7 6 8 12 12 8 8 10 11 11 11 11 11 11 11 12 11 11 12 12 11 11 12 11 9 9 10 9 7 7 9 10 12 12 14 17 19 20 19 18 16 14 12 11 10 9 8
3 3 2 1 1 2 3 3 3 3 4 4 4 4 4 4 4 2 2 2 2 3 6 8 8 8 7 7 7 8 9 11 12 11 10 10 8 7 7 6 6 9 10 8 8 11 11 10 11 11 11 11 11 11 11 11 11 11 11 11 12 10 8 8 8 7 7 7 7 9 13 16 19 22 23 21 18 16 14 13 12 11 9 7 7
3 4 3 2 2 2 3 3 3 3 3 4 5 6 5 4 4 4 4 4 3 2 3 4 6 7 8 8 7 7 8 11 12 12 11 11 9 9 8 6 5 6 7 8 9 11 11 11 11 11 11 11 11 11 11 11 11 11 11 11 11 10 8 8 7 7 6 6 6 9 14 19 22 24 24 21 17 16 15 13 11 10 8 7 6
2 2 1 2 2 3 3 3 3 3 4 4 5 6 6 5 4 4 3 4 3 3 3 3 3 4 7 9 8 7 8 10 12 12 11 11 11 10 9 7 6 6 7 8 9 10 10 11 11 11 11 11 10 10 10 10 10 10 10 9 9 7 6 6 5 5 3 3 6 10 15 19 21 24 24 21 19 18 17 14 11 10 8 6 5
4 3 1 0 1 2 2 3 4 5 4 3 4 5 5 5 4 3 3 4 3 3 3 3 3 3 5 7 8 8 8 9 11 12 12 11 11 11 9 8 8 8 8 9 10 10 10 11 11 12 12 11 10 10 9 9 9 9 9 8 6 5 4 3 2 1 3 5 7 11 16 19 22 24 25 22 18 16 14 12 10 9 7 6 4
4 4 2 2 1 0 1 2 2 3 2 2 2 3 4 5 4 3 3 4 3 2 2 4 5 5 6 8 9 9 8 8 9 11 11 11 12 11 10 10 10 9 9 9 10 10 10 11 12 12 12 11 11 10 9 9 9 8 7 5 4 5 5 5 7 9 11 12 13 14 16 18 19 20 19 17 13 12 11 11 9 8 7 5 3
3 3 1 3 3 2 1 1 0 1 0 1 1 2 3 4 4 3 3 3 4 4 4 4 6 8 9 10 10 9 9 9 10 11 11 12 12 12 11 11 10 10 10 10 10 10 10 11 12 12 12 11 10 9 9 8 8 7 5 4 6 7 7 8 11 13 14 15 15 15 14 13 12 12 12 12 11 11 11 10 8 7 6 4 3
3 3 1 3 3 2 2 3 2 1 1 1 1 1 3 4 4 3 3 4 5 5 5 6 8 9 10 11 11 11 10 10 11 12 12 13 13 12 12 12 11 11 11 11 11 11 11 10 11 12 11 11 10 9 9 8 8 6 5 6 8 9 9 10 11 12 14 14 13 12 11 10 9 8 8 9 9 9 9 8 7 6 5 4 3
2 2 1 1 2 2 3 4 3 2 1 1 2 2 2 3 3 3 3 4 4 5 6 7 9 11 13 14 15 13 11 10 11 12 13 13 13 13 12 12 12 12 11 11 11 11 11 10 11 10 10 10 10 10 9 10 10 9 9 10 12 12 12 12 12 13 13 13 12 10 10 9 8 7 7 7 7 7 7 6 6 5 4 4 3
2 2 1 1 1 2 3 4 4 4 3 2 1 1 2 2 2 3 3 4 4 5 6 7 8 10 15 18 19 16 12 11 12 13 13 13 13 13 13 12 12 12 12 11 11 11 10 10 10 9 9 9 9 9 9 10 10 11 11 12 13 13 13 13 14 13 13 12 11 11 9 7 5 6 7 7 6 5 5 6 5 5 4 4 3
2 1 1 0 1 2 3 3 5 5 4 2 1 1 1 1 2 2 3 4 5 6 7 8 7 7 11 15 16 14 12 12 12 12 12 12 12 13 13 12 12 12 12 10 10 9 9 9 8 8 9 9 9 9 10 11 12 13 13 13 14 14 13 12 12 12 11 10 9 9 7 6 5 6 7 5 4 4 5 5 4 4 4 4 3
1 1 1 1 0 1 1 2 4 5 4 3 2 1 1 1 2 3 4 5 6 6 7 7 7 7 9 11 12 11 11 11 11 12 12 12 12 12 12 11 11 11 11 11 10 9 9 9 10 10 11 12 13 13 13 13 13 13 13 13 14 15 14 12 11 9 9 8 7 7 6 5 5 6 5 5 4 4 4 3 3 4 4 3 3
2 2 1 0 0 1 1 3 4 5 4 4 2 1 2 2 3 4 4 5 6 6 6 7 7 8 9 9 10 10 10 10 11 11 11 12 12 11 11 10 9 9 11 11 11 10 11 12 13 14 14 14 13 13 13 13 13 13 13 13 13 13 12 11 10 8 7 7 6 6 5 5 4 4 4 4 4 4 3 3 3 4 4 3 3
2 1 1 1 1 2 3 4 4 4 3 3 2 2 2 3 4 5 5 5 5 5 5 6 6 7 8 9 9 10 10 10 11 11 11 11 11 11 11 10 9 9 11 12 12 12 13 14 14 14 13 13 12 12 13 13 13 13 12 11 11 11 10 9 8 6 5 4 4 4 4 4 3 3 3 3 3 3 4 3 4 4 4 4 4
2 1 1 1 2 3 3 4 4 3 3 3 2 2 3 4 5 5 5 5 5 5 4 4 5 6 7 7 8 9 10 10 11 11 10 10 11 12 13 14 12 12 13 14 14 14 15 15 14 14 13 12 12 12 12 11 11 10 9 8 8 8 7 7 6 4 2 2 2 3 3 3 3 3 2 2 3 4 4 3 3 3 3 3 3
4 2 1 1 2 3 3 3 3 3 3 2 2 2 3 5 5 5 5 4 4 4 4 4 5 5 6 7 8 8 9 9 9 9 9 9 9 11 13 14 14 13 13 14 13 14 14 14 13 13 12 11 11 10 9 8 7 6 5 5 4 4 5 5 5 5 4 3 3 3 3 3 3 4 3 3 4 4 4 3 4 4 3 3 3
5 3 2 1 1 2 2 3 3 3 3 3 2 3 4 5 5 4 4 4 4 4 4 4 4 5 5 6 6 7 7 8 8 8 8 7 7 8 10 12 13 13 13 12 12 12 12 12 11 11 10 10 9 8 7 6 5 4 4 4 3 3 3 3 4 6 6 5 4 3 4 3 4 4 4 4 4 4 4 4 5 5 4 4 3
6 5 4 2 1 2 3 3 2 2 3 3 3 4 5 5 5 5 4 4 4 4 4 4 4 4 5 5 5 6 6 7 7 7 7 6 6 6 7 9 11 12 12 12 12 11 11 10 10 10 9 9 8 8 7 6 6 5 5 5 4 4 4 4 5 6 7 6 4 3 4 4 4 4 5 5 4 4 4 4 4 4 4 4 4
7 6 6 4 2 2 3 3 3 3 3 3 3 4 6 5 5 5 4 4 4 4 4 4 4 4 4 4 4 5 5 6 6 6 5 5 5 5 6 7 8 8 9 10 11 11 10 10 9 8 8 8 8 8 8 7 7 7 7 6 6 5 4 4 5 5 7 8 6 4 4 4 4 4 4 3 3 3 3 3 2 3 3 3 3
Wind_Direction
177 178 177 179 180 180 181 180 181 185 183 180 179 177 172 166 161 158 155 155 157 159 159 159 161 165 167 167 164 165 163 152 144 144 142 139 135 138 148 157 161 161 160 161 161 162 163 167 169 166 168 170 164 167 172 172 176 178 176 172 158 164 184 174 152 146 150 161 165 167 171 175 181 186 183 183 189 188 185 194 205 206 203 212 227
177 180 177 176 178 178 178 178 182 185 181 179 177 174 171 166 161 158 155 155 158 159 158 159 162 165 169 172 169 168 167 160 152 149 147 145 141 134 137 150 153 149 154 159 160 162 163 166 166 164 168 167 162 167 172 171 175 175 172 167 152 156 175 170 151 150 155 164 172 172 175 185 190 191 192 190 189 195 199 200 202 206 210 211 222
175 177 176 175 175 177 177 178 184 186 181 178 176 172 169 164 160 158 155 154 156 157 159 161 163 164 165 166 164 165 169 165 161 159 154 151 153 148 139 142 146 145 150 157 162 165 165 165 166 166 165 165 167 170 169 171 174 172 170 168 156 154 167 168 156 158 163 169 179 180 180 191 199 196 196 197 196 200 205 206 207 210 216 212 216
170 172 173 173 172 174 177 180 182 183 179 174 171 168 165 163 159 156 154 152 153 154 155 156 155 154 156 157 157 159 164 167 168 166 159 152 156 156 149 143 144 143 141 142 158 169 167 164 167 168 164 166 170 168 166 170 173 172 173 174 168 163 164 174 178 170 168 175 186 191 185 191 203 203 199 200 201 205 209 212 213 213 217 215 214
163 160 155 161 171 174 170 169 172 174 172 169 168 166 162 159 155 152 152 150 150 151 150 149 148 151 154 154 153 154 158 163 167 169 164 157 154 160 159 151 145 140 132 123 134 161 168 167 167 168 167 167 167 165 166 171 172 173 176 177 178 178 176 187 200 193 186 185 188 196 193 192 203 206 202 202 204 208 213 217 218 217 218 214 212
146 138 135 149 170 173 157 153 158 162 163 163 163 160 156 151 146 146 148 146 146 148 148 148 151 155 155 153 152 152 155 160 165 171 173 168 161 161 160 155 150 143 136 123 113 139 164 168 167 168 171 170 167 165 168 172 175 175 178 180 181 183 188 197 209 213 214 209 199 198 200 200 204 207 207 207 207 210 214 217 221 220 217 210 210
136 137 139 147 164 164 145 142 147 151 153 154 152 148 145 141 138 140 141 140 141 141 141 142 146 150 150 150 151 149 149 154 158 163 168 169 167 166 163 163 162 155 146 133 113 115 148 164 168 171 175 175 171 168 169 172 178 180 182 186 189 192 198 205 214 218 223 228 218 206 206 209 208 209 210 210 213 217 217 217 221 219 215 211 210
137 141 143 145 152 144 127 128 134 138 143 145 143 138 134 132 131 133 133 131 130 130 130 133 134 135 138 142 147 150 154 152 148 152 160 163 165 170 172 173 174 173 170 159 137 117 132 155 168 172 176 179 175 172 174 176 181 188 190 193 198 204 209 211 217 221 223 228 227 219 216 213 209 211 213 210 215 221 220 220 224 221 216 214 215
133 135 135 136 137 130 126 129 131 132 135 137 135 129 126 127 127 126 128 128 127 127 129 133 135 133 133 135 135 140 148 153 153 150 146 154 163 168 175 183 185 184 185 182 173 167 148 144 158 166 169 174 174 174 179 179 182 191 195 196 200 206 213 215 216 221 223 225 228 226 222 217 212 213 212 209 214 223 224 223 228 229 222 217 219
121 122 123 126 126 127 133 136 133 130 127 125 127 127 128 131 130 126 124 123 128 135 133 132 134 135 133 125 123 135 160 177 179 174 160 157 159 156 166 184 191 190 189 185 179 178 169 152 151 156 159 165 170 175 182 183 185 190 192 196 200 203 210 217 218 222 224 224 226 226 225 226 223 220 218 216 220 227 229 226 228 232 227 220 222
105 108 112 118 118 114 118 123 125 124 121 123 128 131 133 134 133 134 136 138 151 163 156 138 124 119 119 119 129 161 190 196 196 195 185 174 166 158 163 178 188 192 191 187 183 180 176 169 164 163 162 166 173 185 194 195 196 201 206 210 210 209 215 224 230 231 233 235 235 230 228 232 234 230 229 229 227 227 233 235 235 237 233 226 225
95 96 101 109 112 110 113 117 120 122 124 128 132 137 142 145 149 161 169 177 186 191 178 145 122 120 128 133 135 148 175 197 203 208 207 199 186 180 180 177 183 190 191 190 189 185 183 184 184 186 189 191 195 203 210 213 213 217 224 228 227 227 231 239 245 247 250 253 251 245 240 243 246 240 238 243 244 240 240 242 241 243 242 236 235
96 95 96 96 98 107 116 119 122 124 129 132 131 135 143 147 152 159 162 167 169 162 146 128 112 118 134 137 129 124 131 157 185 203 211 211 203 190 188 187 184 188 191 190 190 189 190 194 196 202 209 212 216 220 221 225 230 232 235 240 244 246 246 250 254 256 258 259 258 256 253 252 253 252 251 251 253 252 248 246 247 248 248 247 249
91 92 94 91 89 96 101 104 110 114 119 127 129 130 131 129 130 135 138 142 142 138 133 122 105 103 114 118 116 113 112 113 123 153 179 195 197 190 193 203 198 196 196 195 197 197 198 205 207 210 217 222 223 222 222 227 234 238 243 247 251 256 258 257 256 256 255 255 257 258 258 258 257 260 259 247 242 246 247 246 250 253 255 259 260
82 85 91 93 96 100 98 94 96 98 102 112 119 122 122 119 118 122 126 130 129 128 127 120 108 99 99 104 106 104 100 100 107 118 126 146 161 165 188 208 203 205 204 203 210 213 215 226 231 229 228 229 230 232 235 240 241 244 248 250 251 253 254 254 255 256 254 254 255 255 257 258 254 252 251 246 249 254 252 250 255 258 254 249 246
79 84 89 91 96 102 103 101 100 100 102 104 105 107 110 112 113 116 119 121 121 120 118 113 108 101 94 94 95 95 95 95 98 105 113 128 124 106 166 213 197 202 201 203 215 217 217 227 236 243 245 245 252 260 264 258 254 254 255 255 255 252 250 254 261 261 256 254 253 252 253 252 250 251 253 254 258 260 254 250 249 246 237 231 233
72 78 84 86 89 96 101 101 101 104 106 105 102 101 104 109 110 111 113 112 112 111 108 105 106 105 101 95 88 85 88 87 85 87 90 103 101 63 348 268 249 246 232 237 239 228 236 241 240 252 265 260 260 268 269 261 255 254 255 256 256 254 253 256 261 263 260 255 253 253 254 254 255 258 258 257 257 253 248 246 240 234 231 232 237
67 69 74 76 78 86 92 93 95 99 102 103 105 106 108 111 113 116 116 111 106 105 103 101 104 107 110 110 103 92 86 78 73 71 60 82 92 46 351 299 292 312 295 289 280 269 276 273 262 261 274 260 254 261 264 259 253 252 254 255 254 253 252 249 251 256 258 255 251 251 253 253 254 256 257 257 257 253 249 248 246 245 244 241 245
64 66 69 71 73 76 78 78 81 86 89 91 96 101 107 111 113 115 113 106 101 102 103 100 99 99 106 117 115 103 83 27 349 7 347 285 136 53 356 332 344 339 310 290 280 269 276 282 275 266 259 254 255 262 264 259 253 251 254 254 252 252 253 247 242 246 253 255 252 251 252 251 251 253 253 253 253 250 248 247 249 252 251 249 255
58 62 65 68 70 72 74 74 74 76 78 80 81 84 89 97 101 99 91 85 83 87 92 95 97 96 96 102 108 101 71 350 323 322 324 310 285 62 29 3 353 347 322 292 279 265 250 254 266 263 256 254 256 258 256 252 248 246 249 254 255 256 257 254 246 241 246 251 248 245 247 247 246 247 249 249 248 247 245 243 243 247 251 257 263
55 57 59 61 62 65 68 70 71 72 73 76 78 77 76 79 85 82 75 73 76 83 92 99 102 103 94 83 74 62 44 10 340 326 325 323 311 321 1 318 299 316 311 286 275 271 255 232 250 258 258 262 265 264 260 254 246 241 242 246 250 254 257 258 256 251 248 247 245 240 236 234 233 234 236 240 243 243 241 238 237 238 243 249 249
58 58 59 59 58 57 58 59 62 64 65 68 71 72 71 70 72 73 76 79 78 77 86 95 99 99 93 86 73 38 11 4 354 341 336 333 324 315 307 291 286 299 306 294 283 277 273 273 269 266 266 272 275 273 272 269 261 253 249 246 243 245 250 254 257 257 252 249 246 240 233 228 223 218 212 218 231 239 240 240 242 242 241 239 233
66 65 63 60 57 55 52 52 55 58 59 63 67 67 67 64 63 62 63 64 64 62 62 69 88 96 92 90 79 54 14 354 358 359 352 342 336 330 314 299 295 296 296 294 291 289 291 290 276 273 277 279 277 276 277 279 277 274 270 266 258 252 251 252 255 255 252 248 243 238 238 232 219 215 217 223 233 238 237 237 241 243 240 236 230
68 67 65 61 57 55 52 50 54 58 60 65 71 72 73 73 71 68 62 56 56 53 43 36 38 66 100 105 83 72 59 357 352 5 10 9 1 351 337 319 306 296 290 291 294 292 288 282 279 281 284 281 277 276 276 278 280 280 280 278 272 265 260 257 256 256 253 250 246 242 242 234 222 222 227 228 233 238 236 233 230 225 219 213 205
57 57 56 52 49 49 50 50 51 54 58 64 67 67 68 70 70 68 62 55 51 38 23 22 16 3 11 31 27 34 53 66 2 2 11 15 9 358 353 347 335 323 305 287 284 283 282 282 286 289 288 285 281 279 276 277 279 279 277 276 273 268 264 260 258 254 250 249 246 241 239 235 225 221 222 225 231 234 226 215 205 197 194 191 184
48 46 45 43 39 38 42 47 50 52 54 59 60 56 53 55 57 53 49 46 42 31 21 13 9 7 1 3 8 14 26 56 62 23 14 9 357 350 350 347 345 347 341 312 301 302 298 296 297 296 293 292 289 285 281 278 277 277 280 280 275 267 261 259 256 252 247 246 245 244 244 237 220 215 223 229 227 219 209 199 189 184 183 177 165
51 47 43 39 38 39 42 45 48 50 49 48 49 48 45 48 50 47 39 31 22 22 26 17 10 12 5 356 5 12 26 59 51 24 9 0 347 341 342 340 340 346 346 330 323 320 310 305 306 303 298 296 292 288 287 282 277 276 278 279 274 265 260 257 253 251 251 250 250 252 249 233 219 223 230 225 210 202 199 193 184 177 174 170 160
52 51 46 41 40 41 43 43 44 47 47 48 47 44 39 38 42 40 30 20 12 8 11 15 16 8 358 358 360 359 23 51 29 1 350 348 344 340 338 335 336 337 328 314 316 318 309 302 303 300 293 290 289 286 283 279 275 273 271 270 268 264 264 263 256 252 251 251 254 255 243 227 223 225 219 208 201 197 192 186 179 172 167 164 156
57 53 48 46 48 49 46 42 40 39 43 48 49 45 39 35 41 38 9 350 348 356 360 8 12 1 354 357 358 356 4 8 351 341 339 340 340 340 336 332 334 333 323 318 321 321 309 296 296 297 292 290 289 285 281 279 278 276 273 272 268 264 265 265 260 255 251 247 249 248 235 225 219 212 203 198 197 192 185 180 175 165 159 158 155
73 64 58 54 54 60 57 49 43 42 46 55 59 55 48 43 43 41 318 302 317 355 15 4 4 3 357 351 346 343 340 336 334 335 337 335 335 334 334 337 340 338 337 337 333 320 305 302 304 306 306 302 296 292 289 288 288 285 280 276 270 266 266 262 258 258 252 244 242 237 228 219 207 199 195 192 187 182 178 176 171 160 155 158 154
79 69 66 61 54 56 56 49 48 58 63 62 63 81 98 63 32 23 17 351 355 22 27 15 12 14 7 351 338 333 333 337 341 341 337 334 332 333 341 349 349 349 355 357 347 322 317 324 321 314 313 308 301 297 295 292 290 286 284 281 275 271 270 266 262 260 252 243 236 228 223 216 200 188 185 183 178 170 163 166 166 161 162 164 156
67 60 64 63 54 49 48 45 51 60 60 54 43 40 80 114 54 31 38 51 57 55 48 34 23 13 2 355 349 344 346 354 357 352 347 348 342 339 351 359 4 8 11 6 348 333 333 331 323 316 314 309 304 303 302 298 293 289 287 286 281 276 275 274 271 267 255 242 230 219 214 206 190 181 178 174 168 159 155 158 158 151 149 143 133
58 51 59 69 67 56 45 41 49 53 45 42 41 33 35 58 83 71 59 55 51 45 38 33 30 21 7 0 359 358 1 7 9 5 4 2 353 353 7 18 21 21 18 5 345 344 343 334 325 319 315 311 311 312 308 302 299 296 293 291 287 283 285 287 281 273 260 244 230 215 202 188 176 171 166 160 155 150 146 143 135 128 126 125 129
65 64 61 52 63 75 61 47 53 59 47 41 47 53 52 48 43 51 80 86 75 54 35 28 27 24 16 10 7 8 14 18 21 23 21 13 11 22 29 27 19 17 13 2 355 356 352 344 338 331 323 318 317 315 309 305 304 303 300 299 297 293 292 292 292 285 267 250 232 210 196 186 174 163 153 146 141 137 130 128 129 129 130 134 139
79 93 83 33 31 74 74 49 46 55 53 49 49 50 51 49 41 34 34 34 41 63 54 37 27 25 27 25 19 21 29 32 33 35 34 31 36 40 28 10 1 2 358 355 360 359 356 353 350 343 335 329 323 318 314 310 307 306 305 306 307 306 300 297 298 294 275 255 233 204 188 179 170 162 153 145 139 133 127 123 122 121 121 124 122
47 82 78 31 41 63 59 38 34 44 43 42 46 44 38 37 40 40 40 36 24 25 42 40 12 12 24 26 27 36 46 48 46 46 45 47 49 41 22 10 14 10 1 359 1 358 358 360 357 350 345 340 332 327 325 320 315 314 315 315 316 318 321 323 319 309 284 234 204 187 174 165 161 157 151 143 137 133 127 119 113 112 113 112 109
28 19 359 49 76 73 61 49 52 65 61 36 32 39 34 31 34 40 52 54 31 10 25 28 6 1 13 14 15 24 31 37 41 40 38 40 43 38 29 24 22 15 10 9 5 0 2 4 360 354 351 347 340 337 337 333 330 329 329 333 341 353 7 17 28 66 98 110 132 150 151 146 146 146 141 134 128 125 121 116 113 112 111 111 115
18 2 328 227 199 126 121 103 69 69 72 38 31 39 27 22 32 42 51 53 36 14 25 26 18 20 14 1 360 8 14 19 29 31 26 25 28 30 30 28 24 21 19 14 7 3 3 3 1 358 355 351 347 348 348 346 346 346 346 357 27 54 70 86 101 109 106 100 101 111 120 123 127 130 128 122 118 117 117 116 116 112 111 119 136
10 2 305 207 221 285 258 181 161 12 34 17 35 36 15 14 25 31 36 43 33 21 27 33 30 24 12 3 7 17 19 20 25 25 22 22 24 26 28 28 25 21 17 12 7 5 3 2 1 0 359 359 359 1 3 6 6 4 9 38 66 77 86 95 99 103 105 101 96 95 97 101 107 115 117 116 118 119 116 113 113 115 119 131 156
11 27 86 187 215 265 248 220 234 264 246 270 320 352 4 7 12 20 31 38 35 30 34 42 41 29 18 23 36 35 25 23 28 28 25 26 27 27 28 28 23 17 12 8 7 6 5 4 4 5 8 13 14 15 21 28 30 34 61 89 88 84 90 98 98 99 101 99 94 91 90 92 99 107 109 109 113 118 119 117 120 126 131 140 155
360 28 63 202 222 228 225 229 237 240 235 262 290 313 344 356 3 22 39 41 43 48 51 55 55 45 40 47 56 51 36 31 35 34 33 33 31 29 28 26 21 16 12 9 7 7 7 8 8 12 20 26 28 30 36 45 51 59 76 89 88 84 89 95 98 103 105 103 100 97 92 90 94 100 102 107 114 121 125 128 131 134 139 145 150
341 355 7 270 243 248 254 242 218 204 208 228 273 313 333 351 11 42 58 55 57 65 67 68 70 58 46 46 54 56 50 43 40 40 39 37 34 32 30 27 24 21 17 14 11 11 13 15 18 25 33 37 40 43 46 54 66 72 75 79 79 77 79 83 89 96 99 101 106 106 95 82 79 90 102 114 125 129 132 136 136 135 137 141 149
325 328 314 261 254 275 270 238 211 206 209 197 167 347 340 12 52 70 78 76 78 82 78 74 73 60 41 39 46 52 52 47 45 44 41 38 36 35 31 29 28 25 22 21 22 23 25 27 31 39 47 57 71 77 75 74 77 78 78 81 83 82 81 84 92 98 98 99 107 108 94 78 80 95 104 111 114 119 128 132 132 132 129 129 137
287 302 270 208 219 318 270 212 199 191 174 154 137 74 18 73 90 95 100 94 88 88 84 75 68 57 43 39 41 46 48 47 45 44 41 39 39 38 34 31 30 27 26 31 38 45 47 46 49 58 66 73 81 85 84 82 82 80 81 85 87 86 84 84 89 98 104 105 106 100 92 91 97 100 104 108 112 119 126 124 121 126 127 122 122
268 301 309 150 109 68 103 146 164 167 165 162 147 87 69 96 104 106 110 105 96 91 87 77 65 54 47 44 44 46 47 47 45 43 42 42 41 39 38 36 32 34 41 48 52 57 60 60 64 71 75 75 76 77 78 81 85 87 89 89 87 84 83 80 78 84 98 108 105 97 99 108 111 106 109 119 126 124 119 117 125 129 123 111 105
250 295 312 111 111 98 102 121 139 150 153 151 131 90 86 106 114 114 111 106 102 98 91 79 65 54 50 50 51 50 49 49 47 46 47 48 48 50 54 54 48 49 57 62 65 68 70 69 70 73 75 74 75 75 75 78 81 83 85 88 88 87 89 90 84 81 92 106 108 110 116 114 107 109 120 122 109 95 96 108 124 125 117 106 98
224 273 305 123 129 125 116 118 130 140 139 129 109 88 103 120 124 122 118 110 105 102 96 81 66 60 58 59 58 55 53 53 53 52 52 54 57 62 69 71 70 68 71 73 74 77 78 78 77 77 77 76 77 77 76 76 77 76 76 78 79 81 87 94 95 97 109 117 113 126 133 117 105 112 116 95 85 88 97 107 112 113 118 120 101
220 236 266 175 154 149 138 136 147 156 150 131 108 106 126 135 135 131 127 121 112 107 101 89 78 72 70 67 64 61 58 57 56 56 56 57 59 61 65 70 71 71 72 73 73 73 74 75 75 75 74 72 71 73 75 75 74 71 65 60 62 70 81 92 103 116 125 121 116 121 124 110 106 110 105 91 89 88 83 84 92 94 99 109 99
222 224 224 197 169 163 154 154 162 157 144 136 137 139 142 144 142 140 136 127 119 117 111 100 92 88 82 75 70 66 62 60 58 58 58 59 60 60 60 64 65 64 62 62 63 64 66 66 65 64 64 63 61 63 66 67 66 66 66 66 72 83 89 97 112 118 115 109 110 120 118 109 107 108 103 96 90 80 72 79 91 89 78 75 75
218 219 216 203 178 166 162 160 155 140 133 141 147 148 150 151 147 144 143 137 129 126 119 111 106 104 95 85 77 69 65 61 60 59 59 60 61 58 55 56 59 57 53 52 53 53 55 60 62 61 58 56 55 56 58 60 62 68 74 77 81 86 92 99 111 118 115 109 108 113 113 111 113 114 110 104 95 86 83 86 86 81 77 73 64
216 217 213 207 196 179 175 177 169 154 149 154 152 151 157 160 154 149 153 152 142 136 133 126 120 113 103 92 83 75 70 67 63 62 64 67 65 59 52 51 54 52 47 46 48 47 47 51 59 64 63 59 57 58 60 62 65 66 67 66 66 71 83 99 115 126 122 115 108 103 105 109 115 119 116 105 91 91 97 91 69 53 58 63 54